Location: Davayat
(45.9471°N, 3.1105°E)
Time: 17:12:45
(UTC+00:00)

Cosmos 864 Rocket - Pass Details

Date: 01 December 2020
Orbit: 952 x 992 km, 82.9° (Epoch: 23 January)

Event Time Altitude Azimuth Distance (km) Brightness Sun altitude
Rises 17:10:04 0° 352° (N) 3,712 7.4 -11.2°
Reaches altitude 10° 17:12:37 10° 355° (N) 2,755 6.7 -11.6°
Maximum altitude 17:18:56 74° 80° (E) 1,022 4.4 -12.6°
Drops below altitude 10° 17:25:09 10° 166° (SSE) 2,710 6.9 -13.6°
Sets 17:27:39 0° 168° (SSE) 3,647 7.6 -14.0°
